Location: Sungai Kamana Besar
(2.6333°N, 113.4333°E)
Time: 04:36:45
(UTC+00:00)

Skynet4D Del rocket - Pass Details

Date: 29 May 2022
Orbit: 763 x 1290 km, 26.9° (Epoch: 24 June)

Event Time Altitude Azimuth Distance (km) Brightness Sun altitude
Exits shadow 20:02:05 71° 144° (SE) 1,113 4.1 -31.4°
Drops below altitude 10° 20:08:30 10° 69° (ENE) 2,678 7.2 -30.0°
Sets 20:10:58 0° 66° (ENE) 3,547 8.2 -29.4°
